Location: Unspecified
(49.2170°N, 0.0000°E)
Time: 11:36:05
(UTC+00:00)

Vanguard 1 - Pass Details

Date: 24 January 2021
Orbit: 649 x 3834 km, 34.2° (Epoch: 05 March)

Event Time Altitude Azimuth Distance (km) Brightness Sun altitude
Rises 16:48:28 0° 267° (W) 7,528 16.0 -1.5°
Reaches altitude 10° 16:53:32 10° 263° (W) 6,726 15.8 -2.2°
Maximum altitude 17:14:52 48° 199° (SSW) 4,419 13.7 -5.4°
Drops below altitude 10° 17:32:45 10° 133° (SE) 5,723 13.7 -8.1°
Sets 17:36:40 0° 127° (SE) 6,381 13.9 -8.7°
